COSMOS 1455 (14032 NORAD) Tracking and Keplerian Element Data

This shows tracking and keplerian element data for the satellite.

Feedback or suggestion? Click here.




ElementValue
Catalog14032
NameCOSMOS 1455
Epoch Orbit28555
Epoch Day34.91783796
Epoch Year2025
RAAN187.8553
Inclination82.5004
Eccentricity0.0007804
Argument of Perigee233.3834
Mean Anonmoly126.6704
Mean Motion15.57085058
Decay Rate0.00051726
L11 14032U 83037A 25034.91783796 .00051726 00000+0 71007-3 0 9993
L22 14032 82.5004 187.8553 0007804 233.3834 126.6704 15.57085058285558



Live tracking and technical data element details for COSMOS 1455 (NORAD 14032). COSMOS 1455 can be tracked NOW for your location showing map with azimuth and elevation plus other details from your city location.







IsCatalogInMostPopularTable: catalog: 14032, numindb: 393
Update: records affected: 1



GetName: 14032 COSMOS 1455

Hit Count: updated at: Fri, 16 May 2025 11:09:14 GMT